Vorticity
19 25 21 10 10 14 13 19 21 14 15 17 14 14 21 20 9 6 20 8 7 11 11 6 22 35 29 14 25 17 8 14 1 8 -20 2 21 42 19 22 13 -1 0 13 12 -4 6 9 11 13 11 8 9 15
11 11 12 13 15 16 18 13 12 12 12 15 16 10 7 20 21 10 26 17 14 25 33 -19 3 23 28 19 7 49 0 30 21 -7 10 8 20 15 3 12 21 18 18 14 11 9 7 1 5 16 17 18 11 14
11 13 15 16 16 14 13 12 13 12 15 14 18 17 17 24 19 31 7 -7 9 20 17 -10 -30 29 32 31 4 5 44 23 23 -5 12 18 -4 7 2 14 15 11 10 7 3 5 15 17 15 23 11 9 7 10
13 14 17 18 18 19 21 20 19 7 15 15 15 22 19 42 -3 3 -3 18 4 18 23 -18 -3 23 12 2 10 12 12 35 8 20 10 13 18 19 25 8 7 3 5 12 12 17 19 20 15 9 9 10 14 11
3 3 7 4 4 4 5 7 6 9 17 11 23 21 41 -2 -13 9 13 9 15 36 15 -8 49 45 7 3 33 21 -11 16 26 13 5 -9 5 31 5 4 12 9 8 10 17 17 14 11 9 13 9 8 6 4
19 20 23 14 5 4 11 7 7 14 19 18 14 36 28 -7 -13 10 7 30 33 -16 -19 -1 14 29 39 32 7 26 20 -6 33 27 15 11 8 -3 1 15 12 6 14 16 11 17 13 15 8 7 8 5 6 7
16 31 25 25 26 19 7 5 5 14 20 14 26 20 20 8 -1 5 37 23 9 -21 -34 -7 27 20 -8 20 5 16 5 16 -5 18 4 9 -8 -0 13 9 7 14 14 12 13 8 11 5 9 7 7 7 5 7
34 23 -9 34 29 27 20 20 14 13 21 21 24 31 2 2 26 19 10 11 14 13 -20 12 37 12 6 6 14 8 16 13 21 18 11 13 11 15 8 11 19 14 13 11 13 7 6 8 7 7 5 8 8 7
15 57 45 7 22 20 22 19 16 18 28 30 48 24 10 16 8 6 10 11 22 3 2 23 11 14 10 13 14 15 16 13 15 14 18 1 1 4 25 23 12 9 13 8 4 8 7 6 5 8 9 7 9 22
24 39 42 38 32 32 30 38 50 50 41 23 13 13 7 1 8 7 2 7 7 -3 9 3 2 19 1 7 -0 -1 18 4 13 17 11 10 8 25 13 11 9 9 3 8 8 7 6 8 7 9 7 10 20 18
52 53 53 44 37 35 34 32 23 13 10 9 2 4 7 12 8 13 0 11 3 10 3 8 9 1 12 17 5 9 13 7 6 12 10 24 23 13 10 7 4 7 8 7 6 7 7 7 9 7 9 19 18 14
3 9 11 11 10 9 8 5 4 2 4 8 8 7 7 5 12 3 5 7 -0 2 6 1 6 9 15 11 2 5 9 6 8 15 22 17 12 10 5 6 8 7 6 6 7 7 6 10 8 7 15 20 13 10
8 7 7 8 8 9 10 11 11 11 8 6 5 7 12 16 11 9 15 13 -5 1 -3 -0 9 8 8 0 9 7 12 13 19 14 17 8 5 4 5 7 7 7 6 8 7 8 10 9 6 11 15 20 14 8
5 7 6 7 7 7 8 7 8 10 9 5 6 4 8 10 8 14 17 12 8 -0 -1 26 6 5 9 7 6 14 19 18 12 11 8 6 5 6 6 7 7 6 7 7 10 10 9 8 8 12 18 13 11 16
6 5 4 5 3 4 6 7 10 12 8 8 9 5 6 7 10 11 10 6 -4 13 14 0 9 8 12 15 21 25 15 10 7 5 5 7 6 7 9 6 6 7 9 10 11 9 10 7 9 13 14 14 15 12
4 4 6 5 3 5 7 6 8 8 12 10 8 11 12 5 9 9 16 19 1 8 8 8 14 17 14 26 20 8 8 5 6 7 7 6 7 8 6 6 8 9 9 11 10 9 10 5 9 11 12 14 14 10
9 12 9 8 8 8 4 5 12 8 6 9 8 13 12 10 11 3 5 15 10 11 15 20 20 20 17 9 10 3 5 5 9 5 4 8 7 7 9 11 12 11 11 11 9 9 9 5 7 9 11 12 12 11
6 4 3 2 6 8 13 11 10 17 12 14 11 4 -0 7 12 9 6 13 19 17 19 19 12 11 12 10 6 5 7 6 4 6 8 9 10 8 9 10 10 10 10 10 11 9 9 6 7 9 11 10 12 11
14 12 9 9 10 11 10 8 6 7 5 6 7 -0 5 17 7 11 16 18 19 19 16 10 7 8 3 7 6 10 7 4 4 5 7 4 5 7 8 11 9 11 12 12 10 9 9 6 6 12 10 10 12 13
6 7 8 5 4 4 5 4 4 7 8 8 4 12 10 13 20 19 17 16 16 10 6 7 7 5 4 6 10 7 3 2 -1 2 4 4 3 6 4 9 8 12 12 10 10 10 9 7 7 12 9 10 11 12
8 7 10 10 10 7 7 8 11 4 11 6 14 18 15 16 14 14 14 12 7 6 11 2 5 6 5 9 7 7 6 3 1 2 3 5 5 5 4 10 7 9 12 11 11 11 11 8 10 13 11 10 9 11
8 10 6 7 8 10 10 11 7 13 18 13 20 16 18 15 13 16 14 11 6 8 7 7 8 10 9 7 7 8 8 6 4 5 5 5 6 5 6 9 7 11 12 13 14 12 10 9 14 12 12 10 9 10
17 10 9 6 5 7 13 14 15 14 8 9 13 13 12 12 7 6 3 5 4 5 3 2 4 6 7 7 7 6 6 5 6 6 6 6 7 8 10 9 10 12 14 13 13 13 9 9 12 13 11 10 10 8
9 5 7 7 7 8 2 6 6 9 8 11 8 11 10 9 5 5 4 4 5 5 5 6 5 5 5 5 5 5 2 5 8 8 10 11 11 10 10 13 14 13 13 15 14 11 8 8 11 13 11 9 8 8
12 11 12 10 10 9 5 2 11 11 13 9 9 8 10 9 8 7 7 8 7 7 7 6 7 9 10 10 11 13 13 12 12 13 12 12 14 17 16 16 16 14 13 11 9 7 8 11 13 14 13 13 10 9
9 17 19 21 19 16 16 14 7 7 10 8 8 12 13 12 11 10 11 11 11 12 13 14 14 14 13 13 13 13 14 13 14 15 15 16 15 12 11 10 9 9 8 8 8 10 12 13 15 15 14 14 11 12
8 10 8 9 10 15 17 16 16 15 14 14 13 7 5 8 10 12 14 16 17 15 12 10 9 9 8 9 10 10 10 11 11 12 12 12 11 10 9 8 8 9 10 12 14 15 16 16 15 14 13 13 11 13
13 12 9 8 9 9 5 5 5 10 13 14 15 16 14 12 9 10 8 8 10 11 11 11 11 11 11 11 12 12 13 11 9 8 8 9 8 10 10 10 10 12 14 17 18 17 17 16 15 14 13 13 16 10
9 10 14 12 13 15 15 14 15 15 12 12 13 12 12 14 13 15 16 13 11 10 10 10 11 11 9 6 4 4 4 4 4 3 5 13 23 22 20 19 19 19 20 20 19 16 14 14 16 18 18 12 11 11
3 4 5 6 10 9 10 11 11 14 16 13 12 11 11 11 8 9 8 7 7 7 8 7 4 2 4 7 7 5 4 7 9 8 12 16 18 13 15 20 18 21 25 15 14 14 11 12 12 10 10 11 11 10
5 7 9 8 7 7 9 5 4 4 5 6 6 7 7 6 3 3 5 8 10 8 5 5 7 7 5 6 5 6 4 9 12 15 14 8 -2 10 25 23 17 18 19 11 4 7 12 8 6 8 6 6 8 10
18 13 7 4 5 8 8 6 3 6 10 5 5 8 7 3 -1 -1 3 5 3 3 6 8 10 8 9 9 9 6 12 14 10 6 5 8 15 30 26 25 17 13 11 7 9 11 11 15 14 8 4 5 7 8
7 26 48 45 21 4 1 5 8 10 9 8 7 10 11 13 8 -0 1 8 7 7 8 8 7 8 13 14 14 14 12 4 6 -2 8 29 31 25 27 21 10 10 5 6 10 10 9 10 11 10 9 8 7 6
Height
5289 5294 5300 5305 5310 5314 5318 5324 5329 5336 5342 5349 5356 5365 5374 5382 5392 5401 5414 5423 5432 5442 5454 5462 5468 5472 5480 5486 5493 5503 5509 5515 5525 5531 5538 5543 5548 5553 5559 5563 5568 5571 5572 5575 5575 5576 5578 5577 5575 5574 5572 5569 5568 5567
5287 5291 5295 5300 5304 5309 5314 5320 5326 5332 5339 5345 5353 5360 5368 5377 5387 5396 5407 5418 5427 5436 5447 5451 5459 5468 5475 5481 5489 5493 5503 5512 5521 5528 5533 5537 5544 5548 5553 5557 5559 5562 5565 5568 5569 5569 5568 5567 5567 5566 5564 5562 5562 5561
5285 5288 5292 5296 5301 5306 5311 5317 5323 5329 5335 5342 5348 5356 5364 5373 5384 5395 5408 5417 5424 5432 5441 5446 5454 5463 5470 5477 5485 5490 5496 5505 5514 5521 5525 5530 5537 5542 5546 5551 5552 5554 5557 5558 5560 5561 5560 5560 5559 5557 5555 5555 5555 5554
5282 5285 5288 5293 5297 5303 5308 5314 5320 5326 5333 5339 5346 5353 5362 5373 5385 5396 5405 5413 5421 5430 5436 5448 5452 5460 5466 5473 5480 5487 5494 5502 5510 5514 5521 5527 5532 5536 5540 5543 5547 5549 5550 5552 5553 5552 5552 5551 5550 5550 5550 5549 5548 5547
5278 5281 5285 5290 5295 5300 5306 5312 5318 5323 5330 5337 5344 5353 5363 5375 5386 5396 5404 5412 5421 5432 5440 5444 5449 5456 5464 5468 5475 5483 5493 5496 5502 5508 5515 5519 5524 5530 5535 5538 5539 5542 5544 5545 5544 5543 5544 5544 5545 5546 5545 5544 5542 5539
5268 5271 5275 5281 5288 5295 5302 5309 5315 5321 5328 5336 5344 5353 5363 5376 5386 5394 5403 5412 5422 5429 5438 5440 5447 5452 5458 5464 5471 5482 5490 5494 5498 5504 5510 5516 5521 5526 5529 5532 5534 5536 5537 5536 5536 5537 5539 5539 5540 5539 5539 5537 5535 5532
5258 5261 5265 5270 5277 5286 5296 5305 5313 5320 5327 5335 5344 5354 5367 5378 5389 5397 5408 5419 5425 5431 5435 5440 5449 5455 5461 5467 5474 5481 5487 5491 5496 5500 5505 5512 5516 5519 5523 5526 5528 5529 5528 5528 5530 5532 5534 5534 5534 5533 5531 5530 5527 5524
5251 5252 5254 5261 5269 5278 5289 5299 5309 5318 5325 5334 5345 5357 5370 5383 5391 5400 5410 5419 5427 5433 5440 5446 5450 5458 5463 5468 5475 5479 5484 5488 5493 5498 5502 5507 5511 5514 5517 5520 5521 5521 5522 5525 5526 5528 5528 5528 5527 5526 5525 5522 5519 5515
5247 5243 5247 5255 5265 5275 5285 5296 5307 5317 5326 5336 5347 5360 5371 5382 5394 5405 5415 5423 5430 5437 5440 5446 5454 5458 5463 5469 5474 5479 5483 5487 5491 5494 5498 5502 5505 5510 5513 5513 5514 5516 5520 5521 5522 5523 5523 5522 5521 5520 5517 5514 5510 5507
5249 5247 5250 5257 5267 5277 5287 5297 5307 5318 5329 5340 5352 5364 5377 5388 5399 5408 5419 5425 5431 5437 5442 5447 5454 5459 5464 5469 5474 5478 5481 5485 5489 5492 5495 5499 5503 5505 5506 5508 5512 5515 5516 5518 5518 5518 5518 5517 5515 5512 5510 5506 5503 5500
5262 5263 5266 5273 5281 5289 5299 5309 5319 5330 5342 5352 5363 5376 5385 5395 5403 5411 5419 5424 5431 5438 5444 5449 5454 5458 5464 5469 5473 5477 5480 5483 5486 5489 5492 5494 5497 5501 5504 5506 5509 5511 5512 5513 5513 5513 5512 5511 5508 5506 5503 5499 5496 5494
5286 5288 5291 5296 5303 5311 5320 5330 5339 5349 5361 5371 5379 5386 5393 5400 5407 5413 5418 5426 5434 5441 5446 5451 5455 5460 5463 5467 5470 5474 5477 5480 5482 5485 5488 5491 5496 5499 5502 5504 5506 5507 5508 5509 5508 5507 5506 5504 5502 5500 5497 5493 5491 5489
5309 5312 5315 5320 5326 5332 5340 5348 5356 5365 5372 5379 5386 5392 5398 5405 5411 5416 5422 5430 5437 5444 5448 5452 5456 5458 5459 5464 5468 5471 5474 5477 5480 5483 5487 5492 5494 5497 5499 5501 5503 5504 5504 5503 5502 5501 5499 5498 5496 5494 5490 5487 5485 5483
5327 5330 5334 5339 5344 5350 5356 5363 5369 5376 5382 5389 5394 5399 5404 5410 5417 5424 5431 5438 5444 5446 5449 5452 5456 5458 5462 5464 5467 5469 5472 5475 5479 5484 5488 5490 5493 5495 5497 5498 5499 5500 5499 5499 5498 5497 5495 5494 5491 5488 5484 5482 5480 5477
5342 5345 5348 5353 5358 5363 5368 5373 5380 5386 5392 5398 5404 5409 5413 5419 5425 5431 5436 5439 5443 5446 5449 5452 5454 5457 5460 5462 5465 5468 5472 5476 5480 5484 5485 5488 5491 5492 5494 5495 5495 5495 5495 5494 5493 5491 5490 5487 5485 5482 5479 5477 5474 5472
5355 5358 5361 5366 5370 5375 5380 5384 5389 5394 5398 5403 5408 5413 5419 5425 5429 5432 5436 5440 5442 5444 5446 5448 5450 5454 5457 5460 5464 5468 5473 5477 5480 5481 5484 5486 5488 5489 5490 5490 5490 5490 5489 5487 5486 5485 5483 5481 5479 5476 5473 5471 5469 5466
5366 5369 5370 5375 5379 5383 5388 5392 5395 5398 5402 5408 5413 5417 5421 5425 5429 5433 5436 5439 5441 5443 5444 5447 5450 5453 5458 5462 5467 5470 5474 5476 5478 5480 5482 5483 5484 5485 5485 5486 5485 5484 5483 5482 5481 5479 5477 5475 5473 5470 5467 5465 5462 5460
5375 5378 5380 5384 5387 5390 5393 5397 5401 5405 5408 5413 5417 5421 5425 5427 5430 5432 5434 5436 5439 5441 5444 5448 5453 5457 5461 5465 5469 5470 5472 5474 5476 5478 5479 5480 5481 5481 5481 5480 5479 5478 5477 5476 5475 5473 5471 5469 5467 5464 5461 5458 5456 5453
5381 5384 5386 5389 5392 5395 5399 5403 5406 5410 5413 5416 5419 5421 5424 5426 5428 5430 5432 5435 5437 5441 5445 5449 5454 5458 5461 5463 5465 5468 5470 5472 5474 5475 5476 5476 5476 5476 5476 5474 5473 5472 5470 5469 5467 5466 5464 5462 5460 5457 5454 5451 5449 5446
5386 5389 5392 5395 5398 5401 5403 5406 5409 5412 5414 5417 5418 5420 5422 5425 5427 5429 5431 5434 5438 5441 5445 5449 5452 5455 5458 5460 5463 5465 5467 5469 5470 5471 5472 5472 5472 5471 5470 5469 5467 5465 5464 5462 5460 5458 5456 5454 5452 5449 5445 5443 5440 5438
5390 5392 5394 5397 5399 5402 5405 5407 5409 5412 5413 5416 5417 5420 5421 5423 5425 5428 5431 5434 5438 5441 5445 5448 5451 5454 5456 5458 5460 5462 5463 5465 5466 5466 5467 5466 5466 5465 5464 5462 5460 5458 5457 5455 5453 5450 5448 5446 5445 5441 5438 5435 5432 5429
5392 5394 5396 5398 5400 5402 5405 5407 5409 5412 5414 5415 5417 5419 5421 5423 5425 5429 5432 5435 5438 5441 5444 5446 5449 5451 5454 5456 5457 5458 5459 5460 5460 5460 5460 5459 5458 5457 5455 5454 5452 5450 5449 5447 5445 5443 5440 5438 5435 5432 5430 5428 5425 5422
5393 5395 5397 5398 5399 5401 5405 5405 5408 5410 5412 5414 5416 5419 5421 5423 5425 5428 5431 5434 5437 5439 5441 5444 5445 5447 5449 5451 5452 5453 5453 5453 5454 5453 5453 5451 5450 5448 5447 5445 5443 5441 5439 5438 5436 5434 5432 5430 5427 5424 5421 5419 5417 5413
5395 5396 5398 5399 5400 5403 5404 5406 5407 5409 5411 5413 5415 5418 5420 5422 5424 5426 5429 5431 5434 5435 5437 5439 5441 5442 5444 5445 5446 5446 5446 5446 5445 5445 5443 5442 5440 5439 5437 5436 5434 5432 5430 5428 5427 5425 5423 5421 5418 5416 5413 5410 5408 5405
5393 5394 5396 5397 5398 5400 5401 5403 5405 5407 5410 5411 5413 5415 5417 5419 5421 5424 5425 5427 5429 5431 5432 5434 5435 5436 5437 5437 5438 5438 5437 5437 5436 5435 5433 5432 5431 5430 5428 5426 5425 5423 5421 5420 5418 5415 5413 5411 5408 5406 5403 5400 5398 5395
5392 5392 5394 5393 5395 5396 5398 5399 5401 5403 5405 5406 5409 5411 5413 5415 5416 5418 5420 5422 5423 5424 5426 5427 5427 5428 5428 5429 5429 5428 5428 5427 5426 5425 5424 5423 5422 5421 5419 5418 5416 5414 5412 5410 5407 5405 5403 5400 5398 5395 5393 5390 5388 5385
5389 5390 5391 5392 5392 5393 5394 5395 5396 5397 5399 5401 5404 5406 5407 5409 5411 5413 5414 5415 5416 5417 5418 5419 5420 5420 5420 5420 5420 5419 5419 5418 5418 5417 5416 5415 5413 5412 5410 5408 5406 5404 5401 5398 5396 5394 5392 5390 5387 5385 5383 5381 5378 5375
5384 5385 5386 5387 5388 5389 5390 5392 5393 5394 5395 5396 5398 5399 5401 5403 5405 5406 5407 5408 5409 5410 5411 5411 5412 5412 5412 5412 5412 5412 5411 5411 5410 5408 5407 5405 5403 5401 5399 5397 5395 5392 5390 5388 5386 5384 5382 5380 5378 5376 5373 5371 5369 5366
5378 5379 5380 5380 5382 5383 5384 5385 5386 5387 5389 5390 5392 5393 5394 5395 5397 5398 5399 5400 5401 5402 5403 5403 5404 5404 5404 5404 5404 5403 5402 5401 5401 5399 5397 5395 5392 5389 5387 5385 5383 5381 5379 5377 5376 5374 5373 5371 5369 5367 5365 5363 5360 5357
5370 5371 5372 5374 5375 5376 5378 5378 5379 5379 5380 5382 5384 5385 5386 5388 5390 5391 5393 5394 5395 5395 5396 5396 5396 5396 5396 5396 5395 5394 5392 5391 5389 5388 5385 5384 5382 5379 5377 5374 5372 5371 5370 5369 5368 5367 5365 5363 5361 5359 5357 5354 5351 5348
5359 5360 5362 5364 5366 5367 5368 5369 5370 5372 5373 5375 5377 5379 5380 5381 5383 5384 5386 5387 5387 5388 5388 5388 5388 5387 5387 5386 5385 5384 5383 5381 5379 5377 5374 5372 5371 5369 5366 5364 5362 5361 5361 5361 5360 5358 5357 5355 5353 5351 5348 5346 5343 5339
5345 5347 5348 5351 5353 5355 5356 5358 5360 5361 5363 5365 5368 5370 5371 5372 5374 5375 5377 5377 5377 5378 5378 5378 5377 5377 5376 5375 5374 5373 5371 5370 5368 5366 5364 5362 5360 5357 5355 5354 5354 5354 5354 5353 5352 5350 5349 5346 5344 5342 5340 5337 5334 5330
5333 5332 5333 5334 5337 5339 5341 5342 5344 5347 5350 5352 5355 5357 5359 5360 5362 5366 5366 5366 5367 5367 5367 5366 5366 5365 5365 5364 5363 5362 5360 5359 5357 5355 5353 5350 5347 5346 5345 5345 5346 5347 5346 5346 5344 5343 5341 5338 5336 5333 5331 5327 5324 5320